When you browse on this site, cookies collect data to enhance your experience and personalize the content and advertising you see.
Visit our Privacy Policy to learn more. By continuing to use the site, you agree to this use of cookies and data.
  • In Czech Republic
  • List of Countries
  • For 7 days
  • Water Temperature
  • Weather Map
  • Weather Widgets
  • user-avatar
    Login

    Hourly Weather Karlshamn

    Today, 30 March, Monday

    Time Temperature Precipitation Wind Pressure Humidity
    00:00 -2°C° 0 mm 4 mps 768 mmHg 57%
    01:00 -1°C° 0 mm 3 mps 767 mmHg 58%
    02:00 -2°C° 0 mm 4 mps 766 mmHg 61%
    03:00 -2°C° 0 mm 4 mps 766 mmHg 64%
    04:00 -2°C° 0 mm 4 mps 765 mmHg 67%
    05:00 -2°C° 0 mm 4 mps 765 mmHg 69%
    06:00 0°C° 0 mm 3 mps 765 mmHg 70%
    07:00 0°C° 0 mm 3 mps 765 mmHg 72%
    08:00 +1°C° 0 mm 3 mps 765 mmHg 64%
    09:00 +3°C° 0 mm 4 mps 765 mmHg 56%
    10:00 +4°C° 0 mm 4 mps 766 mmHg 49%
    11:00 +4°C° 0 mm 4 mps 766 mmHg 44%
    12:00 +5°C° 0 mm 4 mps 766 mmHg 39%
    13:00 +5°C° 0 mm 4 mps 766 mmHg 34%
    14:00 +3°C° 0 mm 5 mps 766 mmHg 37%
    15:00 +3°C° 0 mm 5 mps 767 mmHg 39%
    16:00 +2°C° 0 mm 5 mps 767 mmHg 42%
    17:00 +1°C° 0 mm 5 mps 767 mmHg 47%
    18:00 -1°C° 0 mm 4 mps 768 mmHg 52%
    19:00 -1°C° 0 mm 3 mps 768 mmHg 58%
    20:00 -2°C° 0 mm 3 mps 769 mmHg 60%
    21:00 -2°C° 0 mm 3 mps 769 mmHg 62%
    22:00 -4°C° 0 mm 3 mps 770 mmHg 64%
    23:00 -4°C° 0 mm 3 mps 770 mmHg 60%

    Tomorrow, 31 March, Tuesday

    Time Temperature Precipitation Wind Pressure Humidity
    00:00 -4°C° 0 mm 3 mps 770 mmHg 57%
    01:00 -4°C° 0 mm 4 mps 770 mmHg 54%
    02:00 -5°C° 0 mm 3 mps 770 mmHg 52%
    03:00 -5°C° 0 mm 3 mps 770 mmHg 50%
    04:00 -5°C° 0 mm 3 mps 770 mmHg 48%
    05:00 -5°C° 0 mm 3 mps 770 mmHg 45%
    06:00 -4°C° 0 mm 3 mps 771 mmHg 42%
    07:00 -4°C° 0 mm 3 mps 771 mmHg 39%
    08:00 -1°C° 0 mm 2 mps 770 mmHg 34%
    09:00 +2°C° 0 mm 2 mps 770 mmHg 30%
    10:00 +3°C° 0 mm 2 mps 770 mmHg 25%
    11:00 +4°C° 0 mm 2 mps 769 mmHg 27%
    12:00 +4°C° 0 mm 3 mps 769 mmHg 30%
    13:00 +5°C° 0 mm 4 mps 768 mmHg 32%
    14:00 +5°C° 0 mm 5 mps 768 mmHg 36%
    15:00 +5°C° 0 mm 5 mps 767 mmHg 41%
    16:00 +4°C° 0 mm 6 mps 766 mmHg 45%
    17:00 +3°C° 0 mm 6 mps 765 mmHg 59%
    18:00 +2°C° 0 mm 6 mps 764 mmHg 73%
    19:00 +1°C° 0 mm 6 mps 763 mmHg 87%
    20:00 +2°C° 0 mm 6 mps 762 mmHg 86%
    21:00 +2°C° 0 mm 7 mps 762 mmHg 84%
    22:00 +2°C° 0 mm 7 mps 761 mmHg 82%
    23:00 +2°C° 0 mm 7 mps 760 mmHg 82%

    Day after tomorrow, 1 April, Wednesday

    Time Temperature Precipitation Wind Pressure Humidity
    00:00 +2°C° 0 mm 7 mps 760 mmHg 81%
    01:00 +2°C° 0 mm 7 mps 759 mmHg 81%
    02:00 +2°C° 0 mm 7 mps 758 mmHg 82%
    03:00 +2°C° 0 mm 6 mps 758 mmHg 82%
    04:00 +2°C° 0 mm 6 mps 757 mmHg 83%
    05:00 +2°C° 0 mm 6 mps 757 mmHg 83%
    06:00 +3°C° 0 mm 6 mps 757 mmHg 82%
    07:00 +3°C° 0 mm 6 mps 756 mmHg 82%
    08:00 +3°C° 0 mm 6 mps 756 mmHg 77%
    09:00 +4°C° 0 mm 6 mps 755 mmHg 73%
    10:00 +5°C° 0 mm 6 mps 755 mmHg 68%
    11:00 +7°C° 0 mm 6 mps 755 mmHg 65%
    12:00 +8°C° 0 mm 6 mps 755 mmHg 62%
    13:00 +9°C° 0 mm 7 mps 754 mmHg 59%
    14:00 +8°C° 0 mm 7 mps 754 mmHg 59%
    15:00 +8°C° 0 mm 7 mps 753 mmHg 60%
    16:00 +7°C° 0 mm 8 mps 753 mmHg 61%
    17:00 +6°C° 0 mm 7 mps 753 mmHg 65%
    18:00 +5°C° 0 mm 7 mps 752 mmHg 68%
    19:00 +5°C° 0 mm 7 mps 752 mmHg 72%
    20:00 +4°C° 0 mm 7 mps 752 mmHg 75%
    21:00 +4°C° 0 mm 7 mps 752 mmHg 78%
    22:00 +4°C° 0 mm 8 mps 751 mmHg 81%
    23:00 +4°C° 0.2 mm 8 mps 751 mmHg 82%

    2 April, Thursday

    Time Temperature Precipitation Wind Pressure Humidity
    00:00 +4°C° 0.2 mm 8 mps 750 mmHg 83%
    01:00 +4°C° 0.2 mm 8 mps 750 mmHg 84%
    02:00 +4°C° 0.1 mm 8 mps 750 mmHg 82%
    03:00 +4°C° 0.1 mm 8 mps 749 mmHg 81%
    04:00 +4°C° 0.1 mm 7 mps 749 mmHg 80%
    05:00 +4°C° 0 mm 7 mps 749 mmHg 78%
    06:00 +2°C° 0 mm 8 mps 749 mmHg 77%
    07:00 +2°C° 0 mm 8 mps 749 mmHg 76%
    08:00 +4°C° 0 mm 8 mps 749 mmHg 73%
    09:00 +4°C° 0 mm 8 mps 749 mmHg 69%
    10:00 +5°C° 0 mm 8 mps 748 mmHg 66%
    11:00 +6°C° 0 mm 8 mps 748 mmHg 63%
    12:00 +6°C° 0 mm 8 mps 748 mmHg 60%
    13:00 +7°C° 0 mm 8 mps 748 mmHg 58%
    14:00 +7°C° 0 mm 8 mps 748 mmHg 58%
    15:00 +6°C° 0 mm 8 mps 747 mmHg 58%
    16:00 +6°C° 0 mm 8 mps 746 mmHg 58%
    17:00 +6°C° 0 mm 9 mps 745 mmHg 61%
    18:00 +5°C° 0 mm 9 mps 744 mmHg 65%
    19:00 +5°C° 0 mm 9 mps 743 mmHg 69%
    20:00 +3°C° 0.2 mm 10 mps 742 mmHg 74%
    21:00 +3°C° 0.2 mm 11 mps 741 mmHg 79%
    22:00 +2°C° 0.2 mm 11 mps 741 mmHg 84%
    23:00 +1°C° 0.4 mm 11 mps 740 mmHg 79%

    3 April, Friday

    Time Temperature Precipitation Wind Pressure Humidity
    00:00 +1°C° 0.4 mm 11 mps 740 mmHg 75%
    01:00 -1°C° 0.4 mm 12 mps 740 mmHg 71%
    02:00 -1°C° 0.1 mm 11 mps 740 mmHg 70%
    03:00 -2°C° 0.1 mm 10 mps 740 mmHg 69%
    04:00 -1°C° 0.1 mm 9 mps 740 mmHg 69%
    05:00 0°C° 0 mm 9 mps 741 mmHg 65%
    06:00 0°C° 0 mm 9 mps 741 mmHg 60%
    07:00 0°C° 0 mm 9 mps 742 mmHg 56%
    08:00 +1°C° 0 mm 9 mps 743 mmHg 50%
    09:00 +2°C° 0 mm 10 mps 744 mmHg 44%
    10:00 +2°C° 0 mm 10 mps 745 mmHg 38%
    11:00 +3°C° 0 mm 9 mps 747 mmHg 38%
    12:00 +3°C° 0 mm 9 mps 748 mmHg 38%
    13:00 +4°C° 0 mm 8 mps 749 mmHg 38%
    14:00 +4°C° 0 mm 8 mps 751 mmHg 36%
    15:00 +4°C° 0 mm 8 mps 752 mmHg 35%
    16:00 +4°C° 0 mm 7 mps 753 mmHg 34%
    17:00 +3°C° 0 mm 6 mps 754 mmHg 37%
    18:00 +2°C° 0 mm 5 mps 755 mmHg 41%
    19:00 +1°C° 0 mm 4 mps 756 mmHg 44%
    20:00 +1°C° 0 mm 4 mps 757 mmHg 51%
    21:00 0°C° 0 mm 5 mps 758 mmHg 58%
    22:00 0°C° 0 mm 5 mps 759 mmHg 64%
    23:00 0°C° 0 mm 5 mps 759 mmHg 67%

    4 April, Saturday

    Time Temperature Precipitation Wind Pressure Humidity
    00:00 -1°C° 0 mm 6 mps 760 mmHg 70%
    01:00 -1°C° 0 mm 6 mps 760 mmHg 72%
    02:00 -1°C° 0 mm 6 mps 761 mmHg 70%
    03:00 -2°C° 0 mm 6 mps 761 mmHg 67%
    04:00 -2°C° 0 mm 6 mps 762 mmHg 65%
    05:00 -1°C° 0 mm 6 mps 763 mmHg 63%
    06:00 -1°C° 0 mm 6 mps 763 mmHg 61%
    07:00 -1°C° 0 mm 6 mps 764 mmHg 60%
    08:00 +2°C° 0 mm 6 mps 765 mmHg 54%
    09:00 +3°C° 0 mm 5 mps 766 mmHg 47%
    10:00 +5°C° 0 mm 5 mps 766 mmHg 41%
    11:00 +6°C° 0 mm 4 mps 767 mmHg 39%
    12:00 +6°C° 0 mm 4 mps 767 mmHg 37%
    13:00 +7°C° 0 mm 4 mps 768 mmHg 35%
    14:00 +7°C° 0 mm 4 mps 768 mmHg 35%
    15:00 +7°C° 0 mm 4 mps 768 mmHg 36%
    16:00 +7°C° 0 mm 4 mps 768 mmHg 36%
    17:00 +6°C° 0 mm 4 mps 768 mmHg 42%
    18:00 +5°C° 0 mm 4 mps 769 mmHg 48%
    19:00 +3°C° 0 mm 4 mps 769 mmHg 54%
    20:00 +2°C° 0 mm 3 mps 769 mmHg 59%
    21:00 +3°C° 0 mm 2 mps 769 mmHg 63%
    22:00 +2°C° 0 mm 2 mps 770 mmHg 68%
    23:00 +2°C° 0 mm 2 mps 770 mmHg 70%
    Show more